timestamp,surface_pressure_avg,surface_temp_avg,battery_voltage,lat,long
2022-07-31 00:09:01+00:00,341.5713,19.0,11.77,47.84626,-54.09684
2022-07-31 00:19:00+00:00,348.8329,19.0,11.77,47.84626,-54.09684
2022-07-31 00:29:00+00:00,352.7346,19.0,11.77,47.84626,-54.09684
2022-07-31 00:39:00+00:00,354.4713,19.0,11.77,47.84626,-54.09684
2022-07-31 00:49:00+00:00,358.1879,19.0,11.77,47.84626,-54.09684
2022-07-31 00:59:00+00:00,357.2879,19.0,11.77,47.84626,-54.09684
2022-07-31 01:09:00+00:00,354.208,19.0,11.77,47.84626,-54.09684
2022-07-31 01:19:00+00:00,352.2696,19.0,11.77,47.84626,-54.09684
2022-07-31 01:29:00+00:00,356.2813,19.0,11.77,47.84626,-54.09684
2022-07-31 01:39:00+00:00,358.7779,19.0,11.77,47.84626,-54.09684
2022-07-31 01:49:00+00:00,356.82300000000015,19.0,11.77,47.84626,-54.09684
2022-07-31 01:59:00+00:00,356.8196,19.0,11.77,47.84626,-54.09684
2022-07-31 02:09:00+00:00,355.56800000000015,19.0,11.77,47.84626,-54.09684
2022-07-31 02:19:00+00:00,352.4579,19.0,11.77,47.84626,-54.09684
2022-07-31 02:29:00+00:00,346.8997,19.0,11.77,47.84626,-54.09684
2022-07-31 02:39:00+00:00,340.9046,19.0,11.77,47.84626,-54.09684
2022-07-31 02:49:00+00:00,338.9480000000001,19.0,11.77,47.84626,-54.09684
2022-07-31 02:59:00+00:00,340.5764,19.0,11.77,47.84626,-54.09684
2022-07-31 03:09:00+00:00,333.4380000000001,19.0,11.77,47.84626,-54.09684
2022-07-31 03:19:00+00:00,323.1313,19.0,11.77,47.84626,-54.09684
2022-07-31 03:29:00+00:00,316.2196,19.0,11.77,47.84626,-54.09684
2022-07-31 03:39:00+00:00,314.0013,19.0,11.77,47.84626,-54.09684
2022-07-31 03:49:00+00:00,306.0529,19.0,11.77,47.84626,-54.09684
2022-07-31 03:59:00+00:00,300.7614,19.0,11.77,47.84626,-54.09684
2022-07-31 04:09:00+00:00,295.7196,19.0,11.77,47.84626,-54.09684
2022-07-31 04:19:00+00:00,283.5264,19.0,11.77,47.84626,-54.09684
2022-07-31 04:29:00+00:00,276.4181,19.0,11.77,47.84626,-54.09684
2022-07-31 04:39:00+00:00,265.4464,19.0,11.77,47.84626,-54.09684
2022-07-31 04:49:00+00:00,254.7897,19.0,11.77,47.84626,-54.09684
2022-07-31 04:59:00+00:00,246.5348,19.0,11.77,47.84626,-54.09684
2022-07-31 05:09:00+00:00,245.1198,19.0,11.77,47.84626,-54.09684
2022-07-31 05:19:01+00:00,239.7181,19.0,11.77,47.84626,-54.09684
2022-07-31 05:29:01+00:00,231.7248,18.99,11.77,47.84626,-54.09684
2022-07-31 05:39:01+00:00,226.4814,18.99,11.77,47.84626,-54.09684
2022-07-31 05:49:01+00:00,221.0931,18.99,11.77,47.84626,-54.09684
2022-07-31 05:59:01+00:00,210.5948,18.97,11.77,47.84626,-54.09684
2022-07-31 06:09:01+00:00,207.5248,18.96,11.77,47.84626,-54.09684
2022-07-31 06:19:01+00:00,208.1548,18.96,11.77,47.84626,-54.09684
2022-07-31 06:29:01+00:00,202.7931,18.94,11.77,47.84626,-54.09684
2022-07-31 06:39:01+00:00,196.4548,18.92,11.77,47.84626,-54.09684
2022-07-31 06:49:01+00:00,193.0214,18.91,11.77,47.84626,-54.09684
2022-07-31 06:59:01+00:00,195.9665,18.9,11.77,47.84626,-54.09684
2022-07-31 07:09:01+00:00,197.2531,18.9,11.77,47.84626,-54.09684
2022-07-31 07:19:01+00:00,192.0448,18.9,11.77,47.84626,-54.09684
2022-07-31 07:29:01+00:00,193.0298,18.9,11.77,47.84626,-54.09684
2022-07-31 07:39:01+00:00,199.3715,18.9,11.77,47.84626,-54.09684
2022-07-31 07:49:01+00:00,198.1864,18.9,11.77,47.84626,-54.09684
2022-07-31 07:59:01+00:00,202.7815,18.9,11.77,47.84626,-54.09684
2022-07-31 08:09:01+00:00,210.7731,18.9,11.77,47.84626,-54.09684
2022-07-31 08:19:01+00:00,211.4598,18.9,11.77,47.84626,-54.09684
2022-07-31 08:29:01+00:00,214.8898,18.9,11.77,47.84626,-54.09684
2022-07-31 08:39:01+00:00,226.623,18.9,11.77,47.84626,-54.09684
2022-07-31 08:49:01+00:00,231.1131,18.89,11.77,47.84626,-54.09684
2022-07-31 08:59:01+00:00,229.8114,18.88,11.77,47.84626,-54.09684
2022-07-31 09:09:01+00:00,232.4964,18.86,11.77,47.84626,-54.09684
2022-07-31 09:19:00+00:00,240.4248,18.8,11.77,47.84626,-54.09684
2022-07-31 09:29:00+00:00,246.0331,18.8,11.77,47.84626,-54.09684
2022-07-31 09:39:00+00:00,247.6281,18.8,11.77,47.84626,-54.09684
2022-07-31 09:49:00+00:00,251.3098,18.8,11.77,47.84626,-54.09684
2022-07-31 09:59:00+00:00,255.7914,18.8,11.77,47.84626,-54.09684
2022-07-31 10:09:00+00:00,257.768,18.8,11.77,47.84626,-54.09684
2022-07-31 10:19:00+00:00,262.9314,18.8,11.86,47.84626,-54.09684
2022-07-31 10:29:00+00:00,268.0481,18.8,11.86,47.84626,-54.09684
2022-07-31 10:39:00+00:00,271.1747,18.8,11.86,47.84626,-54.09684
2022-07-31 10:49:00+00:00,274.8798,18.8,11.86,47.84626,-54.09684
2022-07-31 10:59:00+00:00,283.9647,18.8,11.86,47.84626,-54.09684
2022-07-31 11:09:00+00:00,286.3314,18.8,11.86,47.84626,-54.09684
2022-07-31 11:19:00+00:00,290.293,18.8,11.86,47.84626,-54.09684
2022-07-31 11:29:00+00:00,300.7797,18.81,11.86,47.84626,-54.09684
2022-07-31 11:39:00+00:00,310.123,18.81,11.86,47.84626,-54.09684
2022-07-31 11:49:00+00:00,312.7513,18.84,11.86,47.84626,-54.09684
2022-07-31 11:59:00+00:00,318.5496,18.86,11.86,47.84626,-54.09684
2022-07-31 12:09:00+00:00,326.183,18.85,11.86,47.84626,-54.09684
2022-07-31 12:19:00+00:00,328.6863,18.86,12.01,47.84626,-54.09684
2022-07-31 12:29:00+00:00,327.423,18.89,12.01,47.84626,-54.09684
2022-07-31 12:39:00+00:00,335.4496,18.89,12.01,47.84626,-54.09684
2022-07-31 12:49:00+00:00,341.4496,18.89,12.01,47.84626,-54.09684
2022-07-31 12:59:00+00:00,342.4696,18.9,12.01,47.84626,-54.09684
2022-07-31 13:09:00+00:00,339.7913,18.9,12.01,47.84626,-54.09684
2022-07-31 13:19:00+00:00,342.543,18.9,12.09,47.84626,-54.09684
2022-07-31 13:29:00+00:00,344.4413,18.9,12.09,47.84626,-54.09684
2022-07-31 13:39:00+00:00,340.3496,18.9,12.09,47.84626,-54.09684
2022-07-31 13:49:00+00:00,343.2196,18.9,12.09,47.84626,-54.09684
2022-07-31 13:59:00+00:00,347.7413,18.9,12.09,47.84626,-54.09684
2022-07-31 14:09:00+00:00,348.6246,18.9,12.09,47.84626,-54.09684
2022-07-31 14:19:00+00:00,342.228,18.95,12.09,47.84626,-54.09684
2022-07-31 14:29:00+00:00,336.958,18.99,12.09,47.84626,-54.09684
2022-07-31 14:39:00+00:00,339.3196,19.0,12.09,47.84626,-54.09684
2022-07-31 14:49:00+00:00,335.8713,19.0,12.09,47.84626,-54.09684
2022-07-31 14:59:00+00:00,327.0079,19.0,12.09,47.84626,-54.09684
2022-07-31 15:09:00+00:00,323.888,19.0,12.09,47.84626,-54.09684
2022-07-31 15:19:01+00:00,317.5713,19.0,12.09,47.84626,-54.09684
2022-07-31 15:29:01+00:00,310.1114,19.0,12.09,47.84626,-54.09684
2022-07-31 15:39:01+00:00,306.5179,19.0,12.09,47.84626,-54.09684
2022-07-31 15:49:01+00:00,305.558,19.0,12.09,47.84626,-54.09684
2022-07-31 15:59:01+00:00,297.2514,19.0,12.09,47.84626,-54.09684
2022-07-31 16:09:01+00:00,289.2247,19.0,12.09,47.84626,-54.09684
2022-07-31 16:19:00+00:00,283.1263,19.0,12.09,47.84626,-54.09684
2022-07-31 16:29:00+00:00,278.288,19.0,12.09,47.84626,-54.09684
2022-07-31 16:39:00+00:00,270.5081,19.0,12.09,47.84626,-54.09684
2022-07-31 16:49:00+00:00,263.2564,19.0,12.09,47.84626,-54.09684
2022-07-31 16:59:00+00:00,254.8198,19.0,12.09,47.84626,-54.09684
2022-07-31 17:09:00+00:00,250.4697,19.0,12.09,47.84626,-54.09684
2022-07-31 17:19:00+00:00,244.9547,19.0,12.09,47.84626,-54.09684
2022-07-31 17:29:00+00:00,237.1531,19.0,12.09,47.84626,-54.09684
2022-07-31 17:39:00+00:00,229.2281,19.0,12.09,47.84626,-54.09684
2022-07-31 17:49:00+00:00,227.4398,19.0,12.09,47.84626,-54.09684
2022-07-31 17:59:00+00:00,224.3714,19.0,12.09,47.84626,-54.09684
2022-07-31 18:09:00+00:00,214.9581,18.99,12.09,47.84626,-54.09684
2022-07-31 18:19:00+00:00,210.3598,19.0,12.01,47.84626,-54.09684
2022-07-31 18:29:00+00:00,209.9498,18.9,12.01,47.84626,-54.09684
2022-07-31 18:39:00+00:00,203.8897,18.9,12.01,47.84626,-54.09684
2022-07-31 18:49:00+00:00,199.7298,18.9,12.01,47.84626,-54.09684
2022-07-31 18:59:00+00:00,201.8914,18.9,12.01,47.84626,-54.09684
2022-07-31 19:09:00+00:00,204.0731,18.9,12.01,47.84626,-54.09684
2022-07-31 19:19:00+00:00,199.5064,18.9,12.01,47.84626,-54.09684
2022-07-31 19:29:00+00:00,197.8831,18.9,12.01,47.84626,-54.09684
2022-07-31 19:39:00+00:00,203.9698,18.9,12.01,47.84626,-54.09684
2022-07-31 19:49:00+00:00,205.1798,18.88,12.01,47.84626,-54.09684
2022-07-31 19:59:00+00:00,205.5264,18.88,12.01,47.84626,-54.09684
2022-07-31 20:09:00+00:00,210.9348,18.9,12.01,47.84626,-54.09684
2022-07-31 20:19:01+00:00,215.3798,18.9,12.01,47.84626,-54.09684
2022-07-31 20:29:01+00:00,215.8497,18.89,12.01,47.84626,-54.09684
2022-07-31 20:39:01+00:00,219.2864,18.89,12.01,47.84626,-54.09684
2022-07-31 20:49:01+00:00,225.3748,18.87,12.01,47.84626,-54.09684
2022-07-31 20:59:01+00:00,229.3698,18.86,12.01,47.84626,-54.09684
2022-07-31 21:09:01+00:00,232.9314,18.88,12.01,47.84626,-54.09684
2022-07-31 21:19:00+00:00,238.6381,18.9,11.93,47.84626,-54.09684
2022-07-31 21:29:00+00:00,241.8848,19.0,11.93,47.84626,-54.09684
2022-07-31 21:39:00+00:00,244.6581,19.15,11.93,47.84626,-54.09684
2022-07-31 21:49:00+00:00,248.1648,19.26,11.93,47.84626,-54.09684
2022-07-31 21:59:00+00:00,252.958,19.3,11.93,47.84626,-54.09684
2022-07-31 22:09:00+00:00,258.7881,19.39,11.93,47.84626,-54.09684
2022-07-31 22:19:00+00:00,265.0014,19.36,11.93,47.84626,-54.09684
2022-07-31 22:29:00+00:00,268.5114,19.37,11.93,47.84626,-54.09684
2022-07-31 22:39:00+00:00,276.243,19.39,11.93,47.84626,-54.09684
2022-07-31 22:49:00+00:00,283.7381,19.38,11.93,47.84626,-54.09684
2022-07-31 22:59:00+00:00,286.4113,19.4,11.93,47.84626,-54.09684
2022-07-31 23:09:00+00:00,288.233,19.4,11.93,47.84626,-54.09684
2022-07-31 23:19:00+00:00,297.7914,19.4,11.93,47.84626,-54.09684
2022-07-31 23:29:00+00:00,307.193,19.08,11.93,47.84626,-54.09684
2022-07-31 23:39:00+00:00,309.4097,19.14,11.93,47.84626,-54.09684
2022-07-31 23:49:00+00:00,314.2097,19.31,11.93,47.84626,-54.09684
2022-07-31 23:59:00+00:00,323.5797,19.3,11.93,47.84626,-54.09684
